Location: Ajisawe
(8.4333°N, 4.3833°E)
Time: 10:13:52
(UTC+00:00)

Vanguard 2 Rocket - Pass Details

Date: 19 April 2021
Orbit: 553 x 3326 km, 32.9° (Epoch: 07 May)

Event Time Altitude Azimuth Distance (km) Brightness Sun altitude
Rises 20:19:04 0° 305° (NW) 6,592 12.2 -35.9°
Reaches altitude 10° 20:24:04 10° 306° (NW) 5,196 11.4 -37.0°
Enters shadow 20:36:56 74° 338° (NNW) 1,724 8.1 -40.0°
Maximum altitude 20:37:54 81° 33° (NNE) 1,621 - -40.2°
Drops below altitude 10° 20:45:22 10° 119° (ESE) 2,957 - -41.9°
Sets 20:47:29 0° 121° (ESE) 3,671 - -42.4°
